Location: Moulis
(42.9609°N, 1.0909°E)
Time: 01:28:31
(UTC+00:00)

CZ-4C R/B - Pass Details

Date: 11 December 2025
Orbit: 484 x 1495 km, 63.4° (Epoch: 17 January)

Event Time Altitude Azimuth Distance (km) Brightness Sun altitude
Rises 17:39:31 0° 322° (NW) 3,781 5.8 -13.8°
Reaches altitude 10° 17:41:55 10° 321° (NW) 2,958 5.3 -14.2°
Maximum altitude 17:49:12 79° 237° (WSW) 1,318 3.2 -15.5°
Drops below altitude 10° 17:58:05 10° 153° (SSE) 3,559 5.3 -17.1°
Sets 18:01:12 0° 152° (SSE) 4,585 5.9 -17.6°
